Regional Weather Roundup
Issued by NWS Goodland, KS

Home | Current Version | Previous Version | Text Only | Print | Product List | Glossary Off
Versions: 1 2 3 4 5 6 7 8 9 10 11 12 13 14 15 16 17 18 19 20 21 22 23 24 25 26 27 28 29 30 31 32 33 34 35 36 37 38 39 40 41 42 43 44 45 46 47 48 49 50

000
ASUS43 KGLD 231259
RWRGLD

GOODLAND FORECAST AREA HOURLY WEATHER ROUNDUP
NATIONAL WEATHER SERVICE GOODLAND KS
700 AM MDT SAT AUG 23 2014

...OFFICIAL OBSERVATIONS...

CITY           SKY/WX    TMP DP  RH WIND       PRES   REMARKS
GOODLAND KS    MOCLDY    64  63  96 E3        29.90R
HILL CITY KS   SUNNY     68  67  96 SE3       29.87R
IMPERIAL NEB   PTCLDY    65  64  97 E7        29.88S FOG
MCCOOK NEB     CLOUDY    67  65  93 NE6       29.87S FOG
AKRON CO       CLOUDY    61  57  87 W10       29.94F
BURLINGTON CO  FOG       60  59  96 CALM      29.91S VSB 1/4
LIMON CO       FOG       55  55 100 SW3       29.97F VSB 1/4
$$

...UNOFFICIAL OBSERVATIONS...

CITY           SKY/WX    TMP DP  RH WIND       PRES   REMARKS
COLBY KS       CLEAR     64  64 100 CALM      29.89S FOG
NORTON KS      PTSUNNY   68  64  88 CALM      29.86R
SHARON SPRINGS   N/A     64  63  96 CALM        N/A
WAKEENEY KS      N/A     68  65  90 MISG        N/A
KIT CARSON CO    N/A     60  58  92 MISG        N/A
YUMA CO          N/A     60  60 100 CALM        N/A
$$


USA.gov is the U.S. government's official web portal to all federal, state and local government web resources and services.